| time (UTC) | temp F | wind direction | speed knots | gust knots | rain 1hr in | rain 24hr in | rain mn in | humidity % | barometer mb |
| 20260504050024 | 64 | 244 | 0.0 | 1.7 | 0.00 | 0.00 | 0.00 | 68 | 1008.5 |
| 20260504044535 | 66 | 172 | 0.0 | 1.7 | 0.00 | 0.00 | 0.00 | 62 | 1008.5 |
| 20260504043023 | 68 | 225 | 0.0 | 1.7 | 0.00 | 0.00 | 0.00 | 60 | 1008.1 |
| 20260504041525 | 71 | 321 | 0.9 | 1.7 | 0.00 | 0.00 | 0.00 | 54 | 1007.8 |
| 20260504040028 | 72 | 263 | 0.9 | 3.5 | 0.00 | 0.00 | 0.00 | 48 | 1007.6 |
| 20260504034534 | 73 | 292 | 1.7 | 4.3 | 0.00 | 0.00 | 0.00 | 47 | 1007.5 |
| 20260504033020 | 74 | 240 | 1.7 | 3.5 | 0.00 | 0.00 | 0.00 | 47 | 1007.4 |
| 20260504031522 | 75 | 242 | 2.6 | 4.3 | 0.00 | 0.00 | 0.00 | 46 | 1007.3 |
| 20260504030039 | 77 | 231 | 1.7 | 3.5 | 0.00 | 0.00 | 0.00 | 48 | 1007.2 |
| 20260504024528 | 80 | 228 | 0.9 | 1.7 | 0.00 | 0.00 | 0.00 | 50 | 1007.2 |
| 20260504023027 | 84 | 198 | 0.0 | 1.7 | 0.00 | 0.00 | 0.00 | 42 | 1007.2 |
| 20260504021522 | 86 | 192 | 0.0 | 1.7 | 0.00 | 0.00 | 0.00 | 37 | 1007.1 |
| 20260504020024 | 88 | 194 | 0.0 | 1.7 | 0.00 | 0.00 | 0.00 | 36 | 1007.2 |
| 20260504014536 | 89 | 223 | 0.0 | 1.7 | 0.00 | 0.00 | 0.00 | 33 | 1007.3 |
| 20260504013032 | 89 | 285 | 0.9 | 2.6 | 0.00 | 0.00 | 0.00 | 28 | 1007.3 |
| 20260504011526 | 89 | 297 | 0.9 | 2.6 | 0.00 | 0.00 | 0.00 | 28 | 1007.4 |
| 20260504010023 | 89 | 5 | 0.9 | 4.3 | 0.00 | 0.00 | 0.00 | 25 | 1007.5 |
| 20260504004531 | 89 | 330 | 1.7 | 5.2 | 0.00 | 0.00 | 0.00 | 26 | 1007.7 |
| 20260504003033 | 89 | 294 | 1.7 | 4.3 | 0.00 | 0.00 | 0.00 | 26 | 1007.9 |
| 20260504001528 | 89 | 302 | 1.7 | 7.0 | 0.00 | 0.00 | 0.00 | 30 | 1007.9 |
| 20260504000024 | 89 | 286 | 2.6 | 7.0 | 0.00 | 0.00 | 0.00 | 28 | 1007.8 |
| 20260503234537 | 89 | 277 | 2.6 | 6.1 | 0.00 | 0.00 | 0.00 | 28 | 1007.9 |
| 20260503233026 | 89 | 319 | 0.9 | 7.0 | 0.00 | 0.00 | 0.00 | 28 | 1008.0 |
| 20260503231533 | 89 | 287 | 2.6 | 7.0 | 0.00 | 0.00 | 0.00 | 28 | 1008.2 |
| 20260503230026 | 89 | 282 | 2.6 | 6.1 | 0.00 | 0.00 | 0.00 | 29 | 1008.4 |
| 20260503224526 | 89 | 312 | 1.7 | 5.2 | 0.00 | 0.00 | 0.00 | 29 | 1008.7 |
| 20260503223009 | 89 | 315 | 1.7 | 7.0 | 0.00 | 0.00 | 0.00 | 28 | 1009.0 |
| 20260503221515 | 88 | 313 | 1.7 | 7.0 | 0.00 | 0.00 | 0.00 | 33 | 1009.2 |
| 20260503220020 | 87 | 241 | 1.7 | 6.1 | 0.00 | 0.00 | 0.00 | 33 | 1009.5 |
| 20260503214526 | 87 | 9 | 1.7 | 6.1 | 0.00 | 0.00 | 0.00 | 36 | 1009.8 |
| 20260503213024 | 86 | 306 | 2.6 | 6.1 | 0.00 | 0.00 | 0.00 | 35 | 1009.9 |
| 20260503211512 | 86 | 350 | 2.6 | 7.0 | 0.00 | 0.00 | 0.00 | 36 | 1010.0 |
| 20260503210025 | 86 | 235 | 1.7 | 5.2 | 0.00 | 0.00 | 0.00 | 35 | 1010.1 |
| 20260503204533 | 85 | 332 | 1.7 | 6.1 | 0.00 | 0.00 | 0.00 | 37 | 1010.3 |
| 20260503203025 | 85 | 311 | 2.6 | 7.0 | 0.00 | 0.00 | 0.00 | 37 | 1010.4 |
| 20260503201526 | 84 | 336 | 3.5 | 5.2 | 0.00 | 0.00 | 0.00 | 38 | 1010.6 |
| 20260503200016 | 83 | 337 | 1.7 | 5.2 | 0.00 | 0.00 | 0.00 | 37 | 1010.8 |
| 20260503194523 | 83 | 288 | 2.6 | 7.8 | 0.00 | 0.00 | 0.00 | 38 | 1011.0 |
| 20260503193032 | 82 | 304 | 2.6 | 7.8 | 0.00 | 0.00 | 0.00 | 39 | 1011.2 |
| 20260503191526 | 81 | 338 | 2.6 | 7.8 | 0.00 | 0.00 | 0.00 | 40 | 1011.3 |
| 20260503190013 | 80 | 347 | 3.5 | 8.7 | 0.00 | 0.00 | 0.00 | 42 | 1011.5 |
| 20260503184532 | 80 | 331 | 4.3 | 7.8 | 0.00 | 0.00 | 0.00 | 44 | 1011.6 |
| 20260503183024 | 79 | 277 | 3.5 | 7.0 | 0.00 | 0.00 | 0.00 | 46 | 1011.7 |
| 20260503181526 | 78 | 352 | 2.6 | 7.8 | 0.00 | 0.00 | 0.00 | 49 | 1011.7 |
| 20260503180031 | 77 | 334 | 3.5 | 7.0 | 0.00 | 0.00 | 0.00 | 52 | 1011.8 |
| 20260503174515 | 76 | 289 | 2.6 | 7.0 | 0.00 | 0.00 | 0.00 | 53 | 1012.0 |
| 20260503173039 | 75 | 296 | 2.6 | 7.8 | 0.00 | 0.00 | 0.00 | 56 | 1011.9 |
| 20260503171524 | 73 | 310 | 1.7 | 4.3 | 0.00 | 0.00 | 0.00 | 62 | 1012.1 |
| 20260503081513 | 53 | 221 | 0.0 | 1.7 | 0.00 | 0.00 | 0.00 | 91 | 1013.2 |
| 20260503071515 | 55 | 223 | 2.6 | 3.5 | 0.00 | 0.00 | 0.00 | 91 | 1013.1 |
| 20260503054525 | 59 | 205 | 0.9 | 1.7 | 0.00 | 0.00 | 0.00 | 84 | 1013.4 |
| 20260503053029 | 60 | 17 | 0.9 | 1.7 | 0.00 | 0.00 | 0.00 | 83 | 1013.4 |